Regional Weather Roundup
Issued by NWS

Home | Current Version | Previous Version | Graphics & Text | Print | Product List | Glossary On
Versions: 1 2 3 4 5 6 7 8 9 10 11 12 13 14 15 16 17 18 19 20 21 22 23 24 25 26 27 28 29 30 31 32 33 34 35 36 37 38 39 40 41 42 43 44 45 46 47 48 49 50
000
ASUS44 KMEG 150600
RWRTN
TENNESSEE HOURLY STATE WEATHER ROUNDUP
NATIONAL WEATHER SERVICE MEMPHIS TN
100 AM CDT MON SEP 15 2014

TNZ002-004-019-021-049-052-054-088>092-150700-
WEST TENNESSEE

CITY           SKY/WX    TMP DP  RH WIND       PRES   REMARKS
MEMPHIS INTL   MOCLDY    67  57  70 NE3       30.17F
NWS MEMPHIS      N/A     61 N/A N/A MISG        N/A
JACKSON        CLEAR     58  56  93 CALM      30.18F
DYERSBURG      CLEAR     57  46  67 CALM      30.20F
PARIS          CLEAR     52  48  87 CALM      30.20S
SAVANNAH       CLEAR     57  57 100 CALM      30.18F
$$

TNZ008-025-027-028-033-062-065-066-150700-
NORTH MIDDLE TENNESSEE

CITY           SKY/WX    TMP DP  RH WIND       PRES   REMARKS
NASHVILLE      PTCLDY    60  55  83 CALM      30.20F
CLARKSVILLE    CLEAR     56  52  86 CALM      30.20S
COOKEVILLE       N/A     55  55 100 CALM      30.20S VSB 1/2
CROSSVILLE     MOCLDY    60  57  89 CALM      30.23S
$$

TNZ061-075-076-078-094-096-097-150700-
SOUTH MIDDLE TENNESSEE

CITY           SKY/WX    TMP DP  RH WIND       PRES   REMARKS
SHELBYVILLE    CLEAR     57  57 100 CALM      30.20F
$$

TNZ017-018-042-046-047-150700-
NORTHEAST TENNESSEE

CITY           SKY/WX    TMP DP  RH WIND       PRES   REMARKS
TRI CITIES     CLOUDY    62  59  90 CALM      30.22S
$$

TNZ012-013-036-069-073-074-150700-
CENTRAL EAST TENNESSEE

CITY           SKY/WX    TMP DP  RH WIND       PRES   REMARKS
KNOXVILLE      MOCLDY    66  64  93 CALM      30.18S
OAK RIDGE      PTCLDY    65  63  93 CALM      30.21S
$$

TNZ083-085-099-150700-
SOUTHEAST TENNESSEE

CITY           SKY/WX    TMP DP  RH WIND       PRES   REMARKS
CHATTANOOGA    PTCLDY    69  65  86 SE3       30.20S
$$

SKY/WX REPORTED AS FAIR MEANS FEW OR NO CLOUDS BELOW
12 THOUSAND FEET.



USA.gov is the U.S. government's official web portal to all federal, state and local government web resources and services.